COSMOS 1519 (GLONASS)

Satellite information

Favourite Embed

Satellite Type and Status

PAYLOADIN ORBIT

Key statistics

Satellite COSMOS 1519 (GLONASS) at a glance.

Uptime

15326

Days in orbit

Revolutions

≈ 2.1

Per day

Orbit

MEO

Medium Earth Orbit

Inclination

66.5

Latest

Satellite identification and parameters

Extended collection of information and parameters for COSMOS 1519 (GLONASS).

Object identification

Identified? True

Debris? False

Object name: COSMOS 1519 (GLONASS)

International designator: 1983-127A

Object number (NORAD): 14590

Object ID (CCSDS): 14590

Country: COMMONWEALTH OF INDEPENDENT STATES (CIS)

Current information (Y/N): Y

RCS size: LARGE

Orbital parameters

Period: 675.741 minutes

Inclination: 66.5013 deg

SMA: 25508.244 km

Apoapsis: 19159.768 km

Periapsis: 19100.45 km

RAAN: 335.2055 deg

Eccentricy: 0.00116273

Argument of periapsis: 191.0548 deg

Mean anomaly: 235.7642 deg

Mean motion: 2.13099251 rev/day

Mean motion (dot): -0.00000054 rev/day2

B* drag term: 0.0 1/REarth

Two-line elements (TLE)

Creation date: Dec. 13, 2025, 5:47 p.m.

Reference frame: TEME

Reference center: EARTH

Epoch: Dec. 13, 2025, 5:58 a.m. UTC

TLE line 0: 0 COSMOS 1519 (GLONASS)

TLE line 1: 1 14590U 83127A 25347.24881153 -.00000054 00000-0 00000-0 0 9993

TLE line 2: 2 14590 66.5013 335.2055 0011627 191.0548 235.7642 2.13099251267185

Live tracking on map

Real-time ground track for satellite COSMOS 1519 (GLONASS).

In-orbit conjunctions

There are no conjunctions computed for COSMOS 1519 (GLONASS), at the moment. Check back to stay up to date, as we update our databases every day.

Go to all conjunctions

Associated space launch

GLONASS navigation satellites

COSMOS 1519 (GLONASS) was lifted into orbit during the mission ‘Proton | Uragan 4 & 5’, on board a Proton space rocket.

The launch took place on Dec. 29, 1983, 12:52 a.m. from 200/40.

For more information about the launch, click the button.

Launch to space Proton | Uragan 4 & 5
Proton | Uragan 4 & 5

Agency: N/A

Status: Launch Successful

Launch date: Dec. 29, 1983, 12:52 a.m. UTC

Rocket: Proton

Launch pad: 200/40

Location: Baikonur Cosmodrome, Republic of Kazakhstan

...

Latest news about this satellite

There are no fresh news available about this satellite. Check back as we update our databases every day.


Newsletter sign-up

Weekly statistics, charts and insights to help you stay on top of the space industry.